MPEC 2017-D82 : 2017 DS36
The following Minor Planet Electronic Circular may be linked-to from your own Web pages, but must not otherwise be redistributed electronically.A form allowing access to any MPEC is at the bottom of this page.


M.P.E.C. 2017-D82 Issued 2017 Feb. 26, 05:19 UT The Minor Planet Electronic Circulars contain information on unusual minor planets and routine data on comets. They are published on behalf of Division F of the International Astronomical Union by the Minor Planet Center, Smithsonian Astrophysical Observatory, Cambridge, MA 02138, U.S.A. Prepared using the Tamkin Foundation Computer Network MPC@CFA.HARVARD.EDU URL https://www.minorplanetcenter.net/ ISSN 1523-6714 2017 DS36 Observations: K17D36S* C2017 02 22.48046 14 51 20.85 +02 00 02.3 20.4 rRED082G45 K17D36S C2017 02 22.48586 14 51 20.08 +01 59 28.4 20.3 rRED082G45 K17D36S C2017 02 22.49105 14 51 19.26 +01 58 56.4 19.8 rRED082G45 K17D36S C2017 02 22.49608 14 51 18.52 +01 58 24.8 20.2 rRED082G45 K17D36S C2017 02 22.50185 14 51 17.62 +01 57 49.0 20.5 rRED082G45 K17D36S C2017 02 22.50738 14 51 16.82 +01 57 14.6 19.6 rRED082G45 K17D36S KC2017 02 24.02558714 47 49.58 -00 39 34.1 19.4 GUED082K92 K17D36S KC2017 02 24.02970914 47 48.95 -00 39 59.7 19.5 GUED082K92 K17D36S KC2017 02 24.03389214 47 48.29 -00 40 25.9 19.4 GUED082K92 K17D36S KC2017 02 24.07748414 47 41.57 -00 44 57.0 19.1 GUED082K92 K17D36S KC2017 02 24.08157214 47 40.93 -00 45 22.3 19.0 GUED082K92 K17D36S KC2017 02 24.08567214 47 40.29 -00 45 47.8 19.1 GUED082K92 K17D36S KC2017 02 24.08824 14 47 40.32 -00 46 58.5 UED082J95 K17D36S KC2017 02 24.09574 14 47 39.22 -00 47 44.8 UED082J95 K17D36S KC2017 02 24.10392 14 47 37.97 -00 48 36.2 19.3 GUED082J95 K17D36S C2017 02 24.49813 14 46 40.80 -01 29 16.7 19.7 VqED082703 K17D36S C2017 02 24.50358 14 46 39.90 -01 29 49.8 19.4 VqED082703 K17D36S C2017 02 24.50584 14 46 39.61 -01 30 03.7 19.7 VoED082691 K17D36S C2017 02 24.50901 14 46 39.04 -01 30 23.4 20.1 VqED082703 K17D36S C2017 02 24.51445 14 46 38.23 -01 30 59.2 19.2 VqED082703 K17D36S C2017 02 24.51769 14 46 37.75 -01 31 17.6 20.2 VoED082691 K17D36S C2017 02 24.52948 14 46 35.97 -01 32 30.3 19.4 VoED082691 K17D36S C2017 02 25.48906814 44 16.20 -03 11 40.7 19.3 GUED082H01 K17D36S C2017 02 25.49077 14 44 16.08 -03 11 50.1 19.5 VqED082G96 K17D36S C2017 02 25.49373914 44 15.44 -03 12 09.5 19.2 GUED082H01 K17D36S C2017 02 25.49929 14 44 14.64 -03 12 42.3 19.0 VqED082G96 K17D36S C2017 02 25.50320914 44 13.90 -03 13 08.0 19.3 GUED082H01 K17D36S C2017 02 25.50353 14 44 14.00 -03 13 09.0 19.4 VqED082G96 K17D36S C2017 02 25.50977 14 44 12.98 -03 13 47.8 19.3 VqED082G96 K17D36S C2017 02 25.51104114 44 12.63 -03 13 56.5 19.4 GUED082H01 Observer details: 691 Steward Observatory, Kitt Peak. Observer J. V. Scotti. 0.9-m f/3 reflector + CCD. 703 Catalina Sky Survey. Observer R. A. Kowalski. Measurers E. J. Christensen, D. C. Fuls, A. R. Gibbs, A. D. Grauer, J. A. Johnson, R. A. Kowalski, S. M. Larson, G. J. Leonard, R. G. Matheny, R. L. Seaman, F. C. Shelly. 0.68-m Schmidt + 10K CCD. G45 Space Surveillance Telescope, Atom Site. Observers M. Blythe, R. Brungard, P. Festler, T. McVey, J. Paige, G. Spitz. Measurers M. Cornell, A. Klein, J. Ruprecht, G. Ushomirsky, J. Varey, D. Woods. 3.5-m f/1 reflector + CCD. G96 Mt. Lemmon Survey. Observer A. D. Grauer. Measurers E. J. Christensen, D. C. Fuls, A. R. Gibbs, A. D. Grauer, J. A. Johnson, R. A. Kowalski, S. M. Larson, G. J. Leonard, R. G. Matheny, R. L. Seaman, F. C. Shelly. 1.5-m reflector + 10K CCD. H01 Magdalena Ridge Observatory, Socorro. Observers W. H. Ryan, E. V. Ryan. Measurer W. H. Ryan. 2.4-m f/8.9 reflector + CCD. J95 Great Shefford. Observer P. Birtwhistle. 0.40-m f/6.0 Schmidt-Cassegrain + CCD. K92 Sutherland-LCOGT B. Observers T. Lister, S. Greenstreet, E. Gomez. Measurer T. Lister. 1.0-m f/8 Ritchey-Chretien + CCD. Orbital elements: 2017 DS36 Earth MOID = 0.1145 AU Epoch 2017 Feb. 16.0 TT = JDT 2457800.5 MPC M 7.24211 (2000.0) P Q n 0.32215877 Peri. 137.91791 -0.65678439 -0.75282812 a 2.1074441 Node 352.74646 +0.56712047 -0.45519161 e 0.5103535 Incl. 20.10745 +0.49699964 -0.47544759 P 3.06 H 20.9 G 0.15 U 6 Residuals in seconds of arc 170222 G45 0.2+ 0.1+ 170224 K92 0.1- 0.1+ 170224 691 0.0 0.0 170222 G45 0.7+ 0.1- 170224 K92 0.2- 0.1+ 170224 691 1.3+ 0.5+ 170222 G45 0.0 0.2+ 170224 J95 0.2- 0.1- 170225 H01 0.0 0.2- 170222 G45 0.1+ 0.1- 170224 J95 0.2+ 0.3+ 170225 G96 0.2+ 0.1+ 170222 G45 0.6- 0.0 170224 J95 0.0 0.2- 170225 H01 0.0 0.1- 170222 G45 0.2- 0.1+ 170224 703 0.2- 0.3- 170225 G96 0.6- 0.6+ 170224 K92 0.0 0.0 170224 703 0.8- 0.4+ 170225 H01 0.0 0.0 170224 K92 0.0 0.1+ 170224 691 0.3- 0.3+ 170225 G96 0.2+ 0.1+ 170224 K92 0.3- 0.1- 170224 703 0.8- 0.5+ 170225 G96 0.2+ 0.2- 170224 K92 0.1- 0.0 170224 703 0.0 1.5- 170225 H01 0.1+ 0.1- Ephemeris: 2017 DS36 a,e,i = 2.11, 0.51, 20 q = 1.0319 Date TT R. A. (2000) Decl. Delta r Elong. Phase V 2017 01 27 15 29 40.8 +40 52 58 0.2675 1.0323 92.7 72.3 20.6 ... 2017 02 11 15 12 24.7 +21 02 31 0.2255 1.0532 100.9 66.9 20.1 ... 2017 02 19 14 58 39.7 +07 59 48 0.2130 1.0763 108.8 60.4 19.9 ... 2017 02 25 14 45 28.4 -02 20 42 0.2108 1.0985 115.9 54.1 19.7 2017 02 26 14 43 00.1 -04 03 45 0.2111 1.1026 117.2 53.0 19.7 2017 02 27 14 40 26.9 -05 46 06 0.2116 1.1068 118.4 51.9 19.7 ... 2017 03 05 14 23 26.1 -15 33 04 0.2192 1.1338 125.7 45.3 19.6 ... 2017 03 13 13 56 45.5 -26 30 41 0.2408 1.1746 134.2 37.3 19.7 ... 2017 03 28 13 02 16.0 -38 33 43 0.3120 1.2624 143.4 28.1 20.1 A. U. Tomatic (C) Copyright 2017 MPC M.P.E.C. 2017-D82


Enter an MPEC number in one of the following forms:
- 1997-B01 (the full form)
- J97B01 (the packed version of the full form)
- B01 (the abbreviated form)